Cloud_Cover
0 0 0 9 45 98 91 53 69 100 56 61 96 100 100 100 100 100 100 100 100 100 100 100 100 100 100 100 92 89 100 100
0 0 4 74 100 100 100 89 100 100 100 100 100 100 100 100 100 100 100 100 100 100 100 100 100 100 100 100 100 98 100 100
0 2 68 100 100 100 100 100 100 100 100 96 96 100 100 100 100 100 100 100 100 100 100 100 100 100 100 100 100 100 100 100
3 19 77 100 100 100 100 100 100 62 100 100 98 100 100 100 100 100 100 100 100 100 100 100 100 100 100 100 100 100 100 100
70 60 67 100 100 100 100 100 100 100 62 76 90 77 100 100 100 100 100 100 100 100 100 100 100 100 100 100 100 100 100 100
100 100 17 44 100 99 100 100 100 100 100 69 67 100 100 100 100 100 100 100 100 100 100 100 100 100 100 100 100 100 100 100
100 100 52 64 100 100 100 23 71 100 100 96 45 100 99 100 100 97 100 100 100 100 100 100 100 100 100 100 100 100 100 100
100 100 40 100 100 100 87 93 100 73 66 87 75 67 79 100 100 100 100 100 97 98 100 100 100 100 100 100 100 100 100 100
100 100 4 49 100 100 100 100 100 80 100 97 92 92 62 100 100 41 38 100 50 96 64 99 100 100 100 100 100 100 100 100
100 49 9 11 77 99 99 100 100 100 100 100 100 65 82 50 7 21 0 0 5 5 60 95 83 86 100 100 100 100 100 100
100 74 100 22 22 50 61 100 100 100 100 100 100 63 67 60 6 4 0 0 0 3 38 89 97 99 100 100 73 100 100 100
100 100 98 70 54 48 89 100 100 100 100 99 76 59 59 99 100 80 92 43 0 0 0 10 11 62 97 100 76 99 100 100
100 100 100 83 31 100 100 100 100 100 100 100 51 42 33 100 100 100 100 100 93 92 26 0 3 60 52 21 93 94 88 11
100 100 100 100 16 100 100 100 100 100 100 100 98 58 85 61 100 100 100 100 100 100 100 86 16 2 0 0 0 4 10 8
100 100 100 100 95 100 100 100 100 100 100 100 100 100 100 94 98 100 98 85 100 99 100 100 100 100 90 20 1 0 0 66
100 100 100 100 100 100 100 100 100 100 100 100 100 100 100 100 100 100 99 83 58 12 6 33 96 100 100 100 100 84 18 4
100 100 100 100 100 100 100 100 100 100 100 100 100 100 100 100 100 100 100 100 94 83 48 45 64 82 48 11 57 80 37 34
100 100 100 100 100 100 100 100 100 94 100 100 100 100 100 100 100 100 100 100 100 100 100 99 99 100 100 100 92 9 74 33
100 100 100 100 100 100 100 100 100 100 100 100 100 100 100 100 100 100 100 100 100 100 100 100 100 100 100 100 100 100 100 74